Caro, MI

7:53 AM EST on November 20, 2017 (GMT -0500)
Caro

Weather History for KCFS - May, 2013

Change the Weather History Date:

Friday, May 3, 2013

  Actual Average (KMBS) Record (KMBS)
Temperature  
Mean Temperature 66 °F -  
Max Temperature 76 °F 62 °F 84 °F (2001)
Min Temperature 57 °F 42 °F 30 °F (2004)
Cooling Degree Days 2    
Growing Degree Days 16 (Base 50)    
Moisture  
Dew Point 40 °F    
Average Humidity 37    
Maximum Humidity 52    
Minimum Humidity 18    
Precipitation  
Precipitation 0.00 in - - ()
Sea Level Pressure  
Sea Level Pressure 30.11 in    
Wind  
Wind Speed 8 mph (ESE)    
Max Wind Speed 18 mph    
Max Gust Speed 24 mph    
Visibility 10 miles    
Events      
Averages and records for this station are not official NWS values.
T = Trace of Precipitation, MM = Missing Value Source: NWS Daily Summary

Daily Weather History Graph

Daily Weather History Graph

Search for Another Location

Airport or City:

Trip Planner

Search our weather history database for the weather conditions in past years. The results will help you decide how hot, cold, wet, or windy it might be!

Date:

Astronomy

May. 03, 2013 Rise Set
Actual Time 6:23 AM EDT 8:38 PM EDT
Civil Twilight 5:51 AM EDT 9:10 PM EDT
Nautical Twilight 5:12 AM EDT 9:49 PM EDT
Astronomical Twilight 4:29 AM EDT 10:32 PM EDT
Moon 2:58 AM EDT (5/3) 2:21 PM EDT (5/3)
Length of Visible Light 15h 18m
Length of Day
14h 14m
Last Quarter, 37% of the Moon is Illuminated
May 3
Last Quarter
May 9
New
May 18
First Quarter
May 25
Full
May 31
Last Quarter

Hourly Weather History & Observations

Time (EDT) Temp. Dew Point Humidity Pressure Visibility Wind Dir Wind Speed Gust Speed Precip Events Conditions
12:02 AM 64.4 °F 44.6 °F 49% 30.15 in 10.0 mi SE 8.1 mph - N/A   Clear
12:18 AM - - N/A% - 0.8 mi North - - N/A   Unknown
12:38 AM 62.6 °F 44.6 °F 52% - 10.0 mi SE 6.9 mph - N/A   Clear
1:02 AM 62.6 °F 32.0 °F 32% - 10.0 mi SE 8.1 mph - N/A   Clear
1:18 AM 62.6 °F 41.0 °F 45% 30.15 in 10.0 mi SE 8.1 mph - N/A   Clear
1:41 AM 62.6 °F 37.4 °F 39% 30.15 in 10.0 mi SE 6.9 mph - N/A   Clear
2:02 AM 62.6 °F 37.4 °F 39% 30.14 in 10.0 mi ESE 6.9 mph - N/A   Clear
2:22 AM 62.6 °F 39.2 °F 42% 30.14 in 10.0 mi ESE 4.6 mph - N/A   Clear
2:38 AM 60.8 °F 41.0 °F 48% - 10.0 mi ESE 5.8 mph - N/A   Clear
2:58 AM 60.8 °F 41.0 °F 48% - 10.0 mi ESE 5.8 mph - N/A   Clear
3:22 AM 60.8 °F 41.0 °F 48% 30.12 in 10.0 mi ESE 5.8 mph - N/A   Clear
3:41 AM 60.8 °F - N/A% - 10.0 mi ESE 8.1 mph - N/A   Clear
3:59 AM 60.8 °F 39.2 °F 45% - 10.0 mi SE 5.8 mph - N/A   Clear
4:19 AM 60.8 °F 32.0 °F 34% - 10.0 mi SE 9.2 mph - N/A   Scattered Clouds
4:39 AM 60.8 °F - N/A% - 10.0 mi SE 8.1 mph - N/A   Mostly Cloudy
4:59 AM - - N/A% - 10.0 mi SE 5.8 mph - N/A   Scattered Clouds
5:22 AM 59.0 °F - N/A% - 10.0 mi SE 6.9 mph - N/A   Clear
5:40 AM 59.0 °F 32.0 °F 36% - 10.0 mi SE 6.9 mph - N/A   Clear
6:02 AM 59.0 °F 35.6 °F 42% 30.13 in 10.0 mi SE 6.9 mph - N/A   Clear
6:18 AM 57.2 °F 35.6 °F 44% 30.13 in 10.0 mi SE 5.8 mph - N/A   Clear
6:38 AM 57.2 °F - N/A% - 10.0 mi SE 5.8 mph - N/A   Scattered Clouds
7:03 AM - - N/A% - 10.0 mi SE 5.8 mph - N/A   Clear
7:18 AM - - N/A% - 10.0 mi SE 3.5 mph - N/A   Unknown
7:40 AM - - N/A% - 10.0 mi SE 5.8 mph - N/A   Mostly Cloudy
8:00 AM - - N/A% - - SE 8.1 mph - N/A   Unknown
8:18 AM - - N/A% - 10.0 mi SE 6.9 mph - N/A   Unknown
8:38 AM - - N/A% - 10.0 mi SE 9.2 mph - N/A   Scattered Clouds
8:58 AM 64.4 °F 32.0 °F 30% - 10.0 mi SE 9.2 mph - N/A   Scattered Clouds
9:16 AM 65.8 °F 39.9 °F 39% 30.14 in 10.0 mi SE 8.1 mph - N/A   Clear
9:35 AM 67.5 °F 40.5 °F 37% 30.13 in 10.0 mi ESE 6.9 mph - N/A   Clear
9:55 AM 69.1 °F 41.2 °F 36% 30.13 in 10.0 mi SE 8.1 mph - N/A   Clear
10:15 AM 69.6 °F 42.6 °F 38% 30.12 in 10.0 mi SE 9.2 mph - N/A   Clear
10:35 AM 70.3 °F 43.0 °F 37% 30.12 in 10.0 mi SE 6.9 mph - N/A   Clear
10:55 AM 69.3 °F 43.5 °F 39% 30.13 in 10.0 mi SE 9.2 mph - N/A   Clear
11:15 AM 69.4 °F 44.4 °F 41% 30.13 in 10.0 mi ESE 8.1 mph - N/A   Clear
11:35 AM 70.2 °F 45.5 °F 41% 30.12 in 10.0 mi ESE 4.6 mph - N/A   Clear
11:54 AM 71.4 °F 46.2 °F 41% 30.13 in 10.0 mi ESE 6.9 mph - N/A   Clear
12:15 PM 72.0 °F 46.4 °F 40% 30.12 in 10.0 mi ESE 9.2 mph - N/A   Clear
12:35 PM 71.1 °F 46.4 °F 41% 30.12 in 10.0 mi SE 8.1 mph - N/A   Clear
12:55 PM 72.3 °F 47.3 °F 41% 30.12 in 10.0 mi ESE 10.4 mph - N/A   Clear
1:15 PM 72.1 °F 48.0 °F 42% 30.12 in 10.0 mi ESE 6.9 mph - N/A   Clear
1:35 PM 73.4 °F 48.0 °F 41% 30.11 in 10.0 mi SE 9.2 mph 16.1 mph N/A   Clear
1:55 PM 73.2 °F 48.0 °F 41% 30.12 in 10.0 mi SE 11.5 mph - N/A   Clear
2:15 PM 72.3 °F 48.9 °F 43% 30.12 in 10.0 mi ESE 12.7 mph 20.7 mph N/A   Clear
2:35 PM 73.0 °F 49.1 °F 43% 30.11 in 10.0 mi SE 11.5 mph 18.4 mph N/A   Scattered Clouds
2:55 PM 74.1 °F 49.6 °F 42% 30.11 in 10.0 mi ESE 11.5 mph - N/A   Scattered Clouds
3:15 PM 74.3 °F 49.6 °F 42% 30.11 in 10.0 mi ESE 12.7 mph 18.4 mph N/A   Scattered Clouds
3:35 PM 74.5 °F 49.6 °F 42% 30.11 in 10.0 mi ESE 13.8 mph 18.4 mph N/A   Clear
3:55 PM 73.8 °F 49.8 °F 43% 30.10 in 10.0 mi ESE 13.8 mph 20.7 mph N/A   Clear
4:14 PM 75.2 °F 48.7 °F 39% 30.10 in 10.0 mi SSE 16.1 mph 23.0 mph N/A   Clear
4:35 PM 75.9 °F 46.6 °F 35% 30.10 in 10.0 mi ESE 18.4 mph 24.2 mph N/A   Clear
4:55 PM 76.1 °F 45.3 °F 33% 30.09 in 10.0 mi SSE 13.8 mph 20.7 mph N/A   Clear
5:14 PM 76.3 °F 44.1 °F 32% 30.09 in 10.0 mi SE 17.3 mph 23.0 mph N/A   Clear
5:35 PM 76.1 °F 41.7 °F 29% 30.09 in 10.0 mi SSE 13.8 mph 19.6 mph N/A   Clear
5:55 PM 76.1 °F 42.4 °F 30% 30.08 in 10.0 mi SE 11.5 mph 20.7 mph N/A   Clear
6:14 PM 75.6 °F 42.4 °F 31% 30.09 in 10.0 mi SE 15.0 mph 21.9 mph N/A   Clear
6:35 PM 74.7 °F 39.0 °F 28% 30.09 in 10.0 mi SE 15.0 mph 21.9 mph N/A   Clear
6:55 PM 74.5 °F 34.9 °F 24% 30.09 in 10.0 mi SE 12.7 mph - N/A   Clear
7:15 PM 74.3 °F 33.6 °F 23% 30.09 in 10.0 mi SE 12.7 mph 18.4 mph N/A   Clear
7:35 PM 73.8 °F 28.8 °F 19% 30.09 in 10.0 mi SE 10.4 mph - N/A   Clear
7:55 PM 72.5 °F 26.2 °F 18% 30.10 in 10.0 mi ESE 11.5 mph 16.1 mph N/A   Clear
8:15 PM 70.9 °F 25.0 °F 18% 30.10 in 10.0 mi ESE 9.2 mph - N/A   Clear
8:35 PM 69.4 °F 25.5 °F 19% 30.10 in 10.0 mi SE 8.1 mph - N/A   Clear
8:55 PM 67.3 °F 28.2 °F 23% 30.10 in 10.0 mi ESE 5.8 mph - N/A   Clear
9:15 PM 66.2 °F 29.3 °F 25% 30.11 in 10.0 mi ESE 4.6 mph - N/A   Clear
9:35 PM 65.3 °F 30.9 °F 28% 30.11 in 10.0 mi East 3.5 mph - N/A   Clear
9:54 PM 64.6 °F 31.8 °F 29% 30.11 in 10.0 mi East 3.5 mph - N/A   Clear
10:15 PM 63.5 °F 32.2 °F 31% 30.11 in 10.0 mi East 5.8 mph - N/A   Clear
10:35 PM 62.6 °F 32.5 °F 32% 30.11 in 10.0 mi East 4.6 mph - N/A   Clear
10:54 PM 61.7 °F 34.5 °F 36% 30.11 in 10.0 mi East 5.8 mph - N/A   Clear
11:15 PM 61.2 °F 35.8 °F 39% 30.11 in 10.0 mi East 4.6 mph - N/A   Clear
11:34 PM 60.1 °F 36.9 °F 42% 30.11 in 10.0 mi East 4.6 mph - N/A   Clear
11:55 PM 59.7 °F 38.3 °F 45% 30.11 in 10.0 mi East 4.6 mph - N/A   Clear